Regional Weather Roundup
Issued by NWS

Home | Current Version | Previous Version | Graphics & Text | Print | Product List | Glossary On
Versions: 1 2 3 4 5 6 7 8 9 10 11 12 13 14 15 16 17 18 19 20 21 22 23 24 25 26 27 28 29 30 31 32 33 34 35 36 37 38 39 40 41 42 43 44 45 46 47 48 49 50
000
ASUS45 KPSR 200210
RWRAZ

ARIZONA REGIONAL HOURLY WEATHER ROUNDUP
NATIONAL WEATHER SERVICE PHOENIX AZ
700 PM MST TUE AUG 19 2014

NOTE: FAIR INDICATES FEW OR NO CLOUDS BELOW 12,000 FEET WITH NO
SIGNIFICANT WEATHER AND/OR OBSTRUCTIONS TO VISIBILITY.

AZZ001>003-036-200300-
NORTHWEST ARIZONA

CITY           SKY/WX    TMP DP  RH WIND       PRES   REMARKS
BULLHEAD CITY  PTCLDY    81  64  57 CALM      29.70S
KINGMAN        MOCLDY    74  52  46 VRB7      29.91S
$$

AZZ004>008-015-016-018-200300-
NORTH CENTRAL ARIZONA

CITY           SKY/WX    TMP DP  RH WIND       PRES   REMARKS
GRAND CANYON   LGT RAIN  55  52  89 S8        30.12R
WILLIAMS       CLOUDY    54  50  87 CALM      30.22S
PRESCOTT       LGT RAIN  60  55  83 W5        30.11R
FLAGSTAFF      MOCLDY    57  54  89 SW15      30.17R
PAYSON         MOCLDY    64  59  82 SW5       30.09R
PAGE           PTCLDY    72  58  61 E3        29.93R
$$

AZZ009>014-017-200300-
NORTHEAST ARIZONA

CITY           SKY/WX    TMP DP  RH WIND       PRES   REMARKS
WINSLOW        PTCLDY    71  58  63 SW3       30.01R
SAINT JOHNS    CLOUDY    67  53  61 SW13      30.07S
WINDOW ROCK    MOCLDY    65  52  62 SW6       30.12S
SHOW LOW       CLOUDY    57  54  88 S12       30.15S
$$

AZZ023-200300-
GREATER PHOENIX AREA

CITY           SKY/WX    TMP DP  RH WIND       PRES   REMARKS
PHOENIX        MOCLDY    86  62  44 NE13      29.78S
BUCKEYE          N/A     77  64  65 NE17G25   29.77F
GLENDALE       MOCLDY    82  63  51 SW22G31   29.84R BLWGDUST
LUKE AFB       NOT AVBL
DEER VALLEY    RAIN      77  64  64 E14G20    29.78F
SCOTTSDALE     PTCLDY    81  62  52 NE12      29.82F
MESA-GATEWAY   MOCLDY    88  61  40 E6        29.82S
CHANDLER       MOCLDY    88  64  45 N14       29.79S
$$

AZZ027-028-200300-
SOUTHWEST MARICOPA COUNTY AND PINAL COUNTY

CITY           SKY/WX    TMP DP  RH WIND       PRES   REMARKS
CASA GRANDE    PTCLDY    86  63  45 E16       29.79F
GILA BEND      PTCLDY    97  50  20 SW12      29.73R
$$

AZZ503-504-507>509-200300-
SOUTHEAST ARIZONA

CITY           SKY/WX    TMP DP  RH WIND       PRES   REMARKS
TUCSON         MOCLDY    80  68  66 E7        29.91R
DAVIS-MONTHAN  PTCLDY    78  67  69 SE12      29.89R
RYAN FIELD       N/A     82  72  69 S7        29.89R
NOGALES        LGT RAIN  70  60  70 S9        30.00S
SIERRA VISTA   LGT RAIN  63  63 100 S8        30.07F
DOUGLAS        LGT RAIN  65  62  90 SW6       30.03F
SAFFORD        CLOUDY    68  63  84 N9        29.96F
$$

AZZ020-021-025-026-031-200300-
SOUTHWEST ARIZONA

CITY           SKY/WX    TMP DP  RH WIND       PRES   REMARKS
YUMA           PTCLDY    99  57  24 S17       29.65R
$$

CAZ031-033-041-043-047-048-061-200300-
SOUTHERN CALIFORNIA

CITY           SKY/WX    TMP DP  RH WIND       PRES   REMARKS
DOWNTOWN L.A.  MOCLDY    71  62  73 W5        29.84S
L.A. AIRPORT   CLOUDY    70  61  73 W12       29.85S
SAN DIEGO      MOCLDY    71  60  68 SW8       29.87F
BURBANK        CLEAR     72  60  66 S8        29.84S
ONTARIO        PTCLDY    75  60  59 W14       29.83F
RIVERSIDE      MOCLDY    74  60  61 W13G18    29.83S
PALM SPRINGS   PTCLDY    94  53  25 NW20      29.68S
EL CENTRO NAS  PTCLDY    98  48  18 W24G31    29.63R
IMPERIAL       CLEAR     96  52  22 W18G26    29.61S
BLYTHE         CLEAR    102  45  14 SW10      29.64S
NEEDLES        CLEAR     86  60  41 N7        29.70F
$$

NVZ020-UTZ003-200300-
SOUTHERN NEVADA-UTAH

CITY           SKY/WX    TMP DP  RH WIND       PRES   REMARKS
LAS VEGAS      PTCLDY    88  55  32 E10       29.70F
SALT LAKE CITY MOCLDY    70  56  61 SE8       29.87S
$$

NMZ009-TXZ055-200300-
NEW MEXICO-WEST TEXAS

CITY           SKY/WX    TMP DP  RH WIND       PRES   REMARKS
ALBUQUERQUE    CLOUDY    78  50  37 W17       29.99R
EL PASO        CLOUDY    78  57  48 W8        29.93R
$$


........................KEY........................
SKY/WX - SKY CONDITION/WEATHER
TMP    - TEMPERATURE IN FAHRENHEIT
DP     - DEW POINT IN FAHRENHEIT
RH     - RELATIVE HUMIDITY IN PERCENT
WIND   - DIRECTION AND SPEED IN MILES PER HOUR (MPH)
VRB    - VARIABLE WIND DIRECTION
PRES   - MEAN SEA LEVEL PRESSURE IN INCHES OF MERCURY
         F - FALLING PRESSURE   R - RISING PRESSURE
         S - STEADY PRESSURE
VSB    - VISIBILITY IN MILES
HX     - HEAT INDEX IN FAHRENHEIT
WCI    - WIND CHILL INDEX IN FAHRENHEIT
TC     - TEMPERATURE IN CELSIUS WHICH IS ALSO KNOWN AS
         TEMPERATURE IN CENTIGRADE
AFB    - AIR FORCE BASE
         LUKE AFB IS LUKE AIR FORCE BASE
         DAVIS-MONTHAN IS DAVIS-MONTHAN AIR FORCE BASE
NAS    - NAVAL AIR STATION
         EL CENTRO NAS IS EL CENTRO NAVAL AIR STATION
N/A    - NOT AVAILABLE


USA.gov is the U.S. government's official web portal to all federal, state and local government web resources and services.